FW4597 Weather Reports


time (UTC)temp
F
wind
direction
speed
knots
gust
knots
rain 1hr
in
rain 24hr
in
rain mn
in
humidity
%
barometer
mb
20260507065702 54 241 0.0 0.0 0.00 0.08 0.00 92 1004.4
20260507065203 54 312 0.0 0.0 0.00 0.08 0.00 92 1004.2
20260507064701 55 281 0.0 0.0 0.00 0.08 0.00 92 1004.3
20260507064200 55 259 0.0 0.0 0.00 0.08 0.00 92 1004.2
20260507063701 55 259 0.0 0.0 0.00 0.08 0.00 92 1004.3
20260507063203 55 328 0.0 0.0 0.00 0.08 0.00 92 1004.4
20260507062655 55 328 0.0 0.0 0.00 0.08 0.00 92 1004.4
20260507062420 55 327 0.0 0.0 0.00 0.08 0.00 93 1004.5
20260507061656 55 329 0.0 0.0 0.00 0.08 0.00 93 1004.4
20260507061153 55 329 0.0 0.0 0.00 0.08 0.00 93 1004.2
20260507060652 55 329 0.0 0.0 0.00 0.08 0.00 93 1004.2
20260507060152 56 329 0.0 0.0 0.00 0.08 0.00 93 1004.4
20260507055650 56 328 0.0 0.0 0.00 0.08 0.00 93 1004.4
20260507055424 56 328 0.0 0.0 0.00 0.08 0.00 93 1004.5
20260507054647 56 328 0.0 0.0 0.00 0.08 0.00 93 1004.5
20260507054147 56 331 0.0 0.0 0.00 0.08 0.00 93 1004.6
20260507053647 56 313 0.0 0.0 0.00 0.08 0.00 93 1004.7
20260507053149 57 313 0.0 0.0 0.00 0.08 0.00 93 1004.8
20260507052647 57 313 0.0 0.0 0.00 0.08 0.00 94 1004.7
20260507052151 57 313 0.0 0.0 0.00 0.08 0.00 94 1004.5
20260507051650 57 312 0.0 0.9 0.00 0.08 0.00 94 1004.5
20260507051148 57 323 0.0 0.9 0.00 0.08 0.00 94 1004.2
20260507050648 57 323 0.0 0.0 0.00 0.08 0.00 94 1004.3
20260507050147 57 323 0.9 3.5 0.00 0.08 0.00 94 1004.3
20260507045905 57 322 0.9 3.5 0.00 0.08 0.00 94 1004.4
20260507045141 58 329 0.9 2.6 0.00 0.08 0.00 94 1004.6
20260507044656 58 320 0.9 2.6 0.00 0.08 0.00 94 1004.6
20260507044141 58 317 0.9 2.6 0.00 0.08 0.00 94 1004.6
20260507043641 58 311 0.9 2.6 0.00 0.08 0.00 94 1004.5
20260507043141 58 321 0.0 1.7 0.00 0.08 0.00 94 1004.4
20260507042909 59 320 0.9 2.6 0.00 0.08 0.00 94 1004.3
20260507042143 59 328 0.9 2.6 0.00 0.08 0.00 94 1004.5
20260507041642 59 320 0.9 2.6 0.00 0.08 0.00 94 1004.4
20260507041142 59 300 0.9 2.6 0.00 0.08 0.00 94 1004.4
20260507040643 59 215 0.9 3.5 0.00 0.08 0.00 94 1004.5
20260507040143 59 232 0.0 3.5 0.00 0.08 0.00 94 1004.7
20260507035640 59 274 0.0 0.0 0.00 0.08 0.08 94 1004.8
20260507035141 59 253 0.0 0.0 0.00 0.08 0.08 94 1004.7
20260507034639 59 256 0.0 0.0 0.00 0.08 0.08 94 1004.5
20260507034141 59 195 0.9 3.5 0.00 0.08 0.08 94 1004.3
20260507033638 59 267 0.9 5.2 0.00 0.08 0.08 94 1004.4
20260507033401 59 247 0.9 5.2 0.00 0.08 0.08 94 1004.1
20260507032626 59 286 0.9 6.1 0.00 0.08 0.08 94 1004.2
20260507032345 59 265 0.9 6.1 0.00 0.08 0.08 94 1004.4
20260507031629 59 281 0.9 7.8 0.00 0.08 0.08 94 1004.1
20260507031125 59 230 1.7 9.6 0.00 0.08 0.08 94 1004.0
20260507030626 59 254 1.7 9.6 0.00 0.08 0.08 94 1003.8
20260507030126 59 237 1.7 7.0 0.00 0.08 0.08 94 1003.8
20260507025623 59 250 1.7 7.8 0.00 0.08 0.08 94 1003.7
20260507025123 59 232 1.7 7.8 0.00 0.08 0.08 94 1003.6
20260507024120 59 242 1.7 7.0 0.00 0.08 0.08 94 1003.7
20260507023622 59 215 1.7 8.7 0.00 0.08 0.08 94 1003.9
20260507022619 59 234 1.7 12.2 0.00 0.08 0.08 94 1003.9
20260507022115 59 231 1.7 12.2 0.00 0.08 0.08 94 1003.9
20260507021833 59 210 2.6 8.7 0.00 0.08 0.08 94 1003.8
20260507021338 59 189 1.7 8.7 0.00 0.08 0.08 94 1003.9
20260507020619 59 250 0.9 7.8 0.00 0.08 0.08 94 1003.8
20260507020115 59 205 0.9 6.1 0.00 0.08 0.08 94 1003.9
20260507015621 59 181 2.6 7.0 0.01 0.08 0.08 94 1003.8
20260507015115 59 200 2.6 11.3 0.01 0.08 0.08 94 1003.7
20260507014840 59 247 1.7 11.3 0.01 0.08 0.08 94 1003.7
20260507013833 59 218 2.6 7.8 0.01 0.08 0.08 94 1003.8
20260507013111 59 247 2.6 7.8 0.01 0.08 0.08 93 1003.8
20260507012828 59 226 2.6 7.8 0.01 0.08 0.08 93 1003.8
20260507012109 59 224 1.7 6.1 0.01 0.08 0.08 93 1003.9
20260507011612 59 269 1.7 7.8 0.01 0.08 0.08 93 1004.0
20260507011339 59 252 1.7 7.8 0.01 0.08 0.08 93 1004.0
20260507010609 59 247 1.7 7.8 0.01 0.08 0.08 93 1004.1
20260507005544 59 235 2.6 10.4 0.00 0.07 0.07 93 1004.1
20260507005251 59 234 1.7 10.4 0.00 0.07 0.07 93 1004.2
20260507004524 59 154 2.6 10.4 0.00 0.07 0.07 93 1004.2
20260507004242 59 213 2.6 10.4 0.00 0.07 0.07 93 1004.2
20260507003509 59 235 1.7 9.6 0.00 0.07 0.07 93 1004.0
20260507003002 59 238 1.7 9.6 0.00 0.07 0.07 93 1004.0
20260507002457 59 256 1.7 8.7 0.00 0.07 0.07 93 1004.0
20260507001943 59 208 1.7 9.6 0.01 0.07 0.07 93 1004.1
20260507001439 59 155 1.7 9.6 0.02 0.07 0.07 93 1004.1
20260507000930 59 253 2.6 6.1 0.02 0.07 0.07 93 1003.9
20260507000647 59 188 2.6 10.4 0.02 0.07 0.07 92 1003.7
20260506235914 60 187 1.7 10.4 0.02 0.07 0.07 92 1003.7
20260506235410 60 234 1.7 10.4 0.02 0.07 0.07 92 1003.8
20260506235116 60 249 0.9 5.2 0.02 0.07 0.07 92 1003.8
20260506234349 60 210 1.7 7.0 0.02 0.07 0.07 92 1003.8
20260506233843 60 234 1.7 9.6 0.02 0.07 0.07 92 1003.9
20260506233332 60 147 1.7 9.6 0.02 0.07 0.07 92 1003.8
20260506232826 60 231 0.9 7.0 0.03 0.07 0.07 92 1003.7
20260506232320 60 227 1.7 8.7 0.03 0.07 0.07 92 1003.8
20260506231312 60 222 2.6 8.7 0.01 0.05 0.05 92 1003.8
20260506231018 60 234 2.6 7.8 0.01 0.05 0.05 91 1003.7
20260506230251 60 227 2.6 7.8 0.01 0.05 0.05 92 1003.7
20260506230016 60 217 1.7 7.0 0.01 0.05 0.05 91 1003.7
20260506225510 60 181 2.6 10.4 0.01 0.05 0.05 91 1003.7
20260506224749 60 240 2.6 11.3 0.02 0.05 0.05 91 1003.9
20260506224249 60 276 1.7 11.3 0.02 0.05 0.05 91 1003.9
20260506223749 60 235 1.7 7.0 0.02 0.05 0.05 91 1003.9
20260506223248 60 207 1.7 7.8 0.02 0.05 0.05 91 1004.0
20260506222752 61 186 2.6 7.8 0.01 0.04 0.04 90 1004.0
20260506222251 61 229 1.7 6.1 0.01 0.04 0.04 90 1004.0
20260506221750 61 222 1.7 8.7 0.01 0.04 0.04 90 1004.2
20260506221251 61 213 1.7 8.7 0.01 0.04 0.04 90 1004.2
20260506220747 61 203 0.9 5.2 0.01 0.04 0.04 89 1004.2
20260506220248 61 206 0.9 7.8 0.01 0.04 0.04 89 1004.2
20260506215748 61 239 0.9 7.8 0.01 0.04 0.04 89 1004.2
20260506215511 61 232 0.0 7.0 0.01 0.04 0.04 89 1004.3
20260506214742 61 242 0.0 3.5 0.00 0.03 0.03 89 1004.5
20260506214242 61 219 0.0 3.5 0.00 0.03 0.03 88 1004.5
20260506213738 61 169 0.9 11.3 0.00 0.03 0.03 88 1004.6
20260506213238 62 188 0.9 12.2 0.00 0.03 0.03 88 1004.6
20260506212739 62 249 0.9 12.2 0.01 0.03 0.03 88 1004.7
20260506212238 62 217 0.0 7.8 0.01 0.03 0.03 88 1004.5
20260506211738 62 236 0.0 7.8 0.01 0.03 0.03 88 1004.5
20260506211507 62 245 0.0 6.1 0.01 0.03 0.03 88 1004.7
20260506210739 62 226 0.0 8.7 0.01 0.03 0.03 87 1004.6
20260506210501 62 251 0.9 8.7 0.01 0.03 0.03 87 1004.6
20260506205737 62 243 0.0 8.7 0.01 0.03 0.03 87 1004.6
20260506205235 62 230 0.0 10.4 0.01 0.03 0.03 87 1004.6
20260506204738 62 187 0.0 10.4 0.01 0.03 0.03 86 1004.7
20260506204235 62 237 0.0 5.2 0.02 0.03 0.03 86 1004.8
20260506203734 62 190 0.0 5.2 0.02 0.03 0.03 85 1004.9
20260506203459 62 233 0.0 0.0 0.02 0.03 0.03 85 1004.9
20260506202730 63 231 0.0 7.0 0.02 0.02 0.02 85 1004.9
20260506202455 63 174 0.0 7.0 0.02 0.02 0.02 84 1004.9
20260506201234 63 180 0.0 5.2 0.02 0.02 0.02 83 1004.8
20260506200729 64 161 0.0 5.2 0.02 0.02 0.02 83 1004.7
20260506200448 64 258 0.0 0.0 0.02 0.02 0.02 82 1004.7
20260506195730 64 160 0.0 5.2 0.02 0.02 0.02 82 1004.7
20260506195223 65 232 0.0 6.1 0.02 0.02 0.02 81 1004.6
20260506194721 65 235 0.0 6.1 0.02 0.02 0.02 81 1004.8
20260506194222 65 169 0.0 2.6 0.01 0.01 0.01 80 1004.7
20260506193722 66 230 0.0 1.7 0.01 0.01 0.01 78 1004.8
20260506193225 66 184 0.0 2.6 0.01 0.01 0.01 77 1005.0
20260506192720 67 235 0.0 2.6 0.00 0.00 0.00 75 1005.0
20260506192225 67 231 0.0 7.8 0.00 0.00 0.00 74 1005.1
20260506191722 68 191 0.0 7.8 0.00 0.00 0.00 72 1005.1
20260506191221 68 242 0.9 7.8 0.00 0.00 0.00 71 1005.0
20260506190945 68 208 0.9 7.8 0.00 0.00 0.00 69 1005.0
20260506190221 69 259 1.7 10.4 0.00 0.00 0.00 67 1004.9
20260506185723 69 203 1.7 14.8 0.00 0.00 0.00 66 1004.8
20260506185222 69 214 0.9 14.8 0.00 0.00 0.00 65 1004.9
20260506184721 70 228 0.9 13.9 0.00 0.00 0.00 64 1005.1
20260506184219 70 235 0.9 13.9 0.00 0.00 0.00 63 1005.1
20260506183955 70 240 0.9 15.6 0.00 0.00 0.00 62 1005.1
20260506183218 71 180 0.9 15.6 0.00 0.00 0.00 62 1005.0
20260506182718 71 213 0.0 7.8 0.00 0.00 0.00 61 1005.0
20260506182220 71 231 0.9 16.5 0.00 0.00 0.00 60 1005.1
20260506181728 71 241 1.7 16.5 0.00 0.00 0.00 59 1005.1
20260506181214 71 192 1.7 13.0 0.00 0.00 0.00 58 1005.1
20260506180946 71 233 1.7 15.6 0.00 0.00 0.00 58 1005.1
20260506180215 71 198 2.6 15.6 0.00 0.00 0.00 58 1005.3
20260506175716 71 266 2.6 14.8 0.00 0.00 0.00 57 1005.2
20260506175444 72 222 1.7 17.4 0.00 0.00 0.00 57 1005.3
20260506174716 72 231 1.7 17.4 0.00 0.00 0.00 57 1005.3
20260506174211 72 234 0.9 17.4 0.00 0.00 0.00 59 1005.4
20260506173710 72 242 0.9 17.4 0.00 0.00 0.00 59 1005.4
20260506173212 72 219 0.0 2.6 0.00 0.00 0.00 60 1005.5
20260506172710 72 195 0.0 3.5 0.00 0.00 0.00 60 1005.5
20260506172210 72 208 0.9 7.8 0.00 0.00 0.00 60 1005.5
20260506171711 73 246 0.9 7.8 0.00 0.00 0.00 59 1005.5
20260506171210 73 232 1.7 11.3 0.00 0.00 0.00 59 1005.5
20260506170712 73 238 1.7 13.9 0.00 0.00 0.00 60 1005.4
20260506170214 71 161 1.7 13.9 0.00 0.00 0.00 62 1005.5
20260506165707 71 220 1.7 14.8 0.00 0.00 0.00 62 1005.6
20260506165207 71 228 2.6 14.8 0.00 0.00 0.00 62 1005.6
20260506164708 71 165 2.6 13.9 0.00 0.00 0.00 62 1005.7
20260506164209 71 230 1.7 9.6 0.00 0.00 0.00 62 1005.7
20260506163710 71 170 1.7 13.0 0.00 0.00 0.00 62 1005.8
20260506163210 71 210 1.7 13.0 0.00 0.00 0.00 62 1005.9
20260506162709 71 202 1.7 10.4 0.00 0.00 0.00 62 1006.0
20260506162216 71 133 1.7 11.3 0.00 0.00 0.00 61 1006.0
20260506161710 71 126 0.9 11.3 0.00 0.00 0.00 61 1006.2
20260506161157 72 156 1.7 9.6 0.00 0.00 0.00 61 1006.3
20260506160651 71 165 1.7 9.6 0.00 0.00 0.00 60 1006.3
20260506160144 72 240 0.9 9.6 0.00 0.00 0.00 61 1006.4
20260506155634 71 227 1.7 9.6 0.00 0.00 0.00 61 1006.6
20260506155115 72 217 1.7 9.6 0.00 0.00 0.00 59 1006.6
20260506154609 72 148 1.7 16.5 0.00 0.00 0.00 59 1006.7
20260506154104 72 251 2.6 16.5 0.00 0.00 0.00 58 1006.8
20260506153554 72 194 0.9 7.0 0.00 0.00 0.00 60 1006.8
20260506153048 72 218 0.9 7.0 0.00 0.00 0.00 59 1006.9
20260506152531 72 271 0.9 6.1 0.00 0.00 0.00 60 1007.0
20260506152023 72 195 0.9 10.4 0.00 0.00 0.00 60 1007.0
20260506151516 72 168 0.9 12.2 0.00 0.00 0.00 60 1006.9
20260506151006 72 243 0.9 12.2 0.00 0.00 0.00 63 1007.0
20260506150501 71 216 0.9 13.0 0.00 0.00 0.00 63 1007.1
20260506145953 71 219 0.9 13.0 0.00 0.00 0.00 62 1007.2
20260506144933 70 256 0.0 6.1 0.00 0.00 0.00 64 1007.2
20260506144427 70 249 0.9 8.7 0.00 0.00 0.00 65 1007.1
20260506143925 69 230 0.9 8.7 0.00 0.00 0.00 66 1007.1
20260506143424 69 150 0.9 9.6 0.00 0.00 0.00 67 1007.1
20260506142924 69 192 0.0 9.6 0.00 0.00 0.00 67 1007.2
20260506142423 69 207 0.0 7.8 0.00 0.00 0.00 68 1007.3
20260506141924 69 228 0.0 8.7 0.00 0.00 0.00 69 1007.0
20260506141419 69 238 0.0 8.7 0.00 0.00 0.00 68 1007.0
20260506141200 69 236 0.0 7.8 0.00 0.00 0.00 69 1007.1
20260506140417 68 228 0.0 6.1 0.00 0.00 0.00 70 1007.2
20260506135931 68 126 0.9 8.7 0.00 0.00 0.00 71 1007.3
20260506135416 68 250 0.9 10.4 0.00 0.00 0.00 71 1007.3
20260506134917 67 213 0.9 10.4 0.00 0.00 0.00 72 1007.3
20260506134415 67 217 0.9 10.4 0.00 0.00 0.00 73 1007.2
20260506134145 67 261 0.0 10.4 0.00 0.00 0.00 73 1007.4
20260506133637 66 200 0.0 10.4 0.00 0.00 0.00 74 1007.6
20260506132910 66 206 0.9 9.6 0.00 0.00 0.00 75 1007.7
20260506132355 65 207 0.9 9.6 0.00 0.00 0.00 76 1007.8
20260506131849 65 186 0.0 6.1 0.00 0.00 0.00 75 1007.8
20260506131346 65 192 0.9 11.3 0.00 0.00 0.00 77 1007.8
20260506131101 64 194 0.9 12.2 0.00 0.00 0.00 76 1007.8
20260506130327 64 214 0.0 12.2 0.00 0.00 0.00 77 1007.7
20260506125822 64 201 0.0 7.8 0.00 0.00 0.00 78 1007.7
20260506125307 64 245 0.9 7.8 0.00 0.00 0.00 78 1007.7
20260506124802 64 182 0.0 7.0 0.00 0.00 0.00 78 1007.7
20260506124254 64 153 0.0 4.3 0.00 0.00 0.00 79 1007.6
20260506123746 63 251 0.0 9.6 0.00 0.00 0.00 80 1007.8
20260506123239 63 177 0.0 9.6 0.00 0.00 0.00 80 1007.9
20260506122734 63 205 0.0 7.8 0.00 0.00 0.00 80 1007.9
20260506122445 62 238 0.0 7.8 0.00 0.00 0.00 80 1008.0
20260506121714 62 274 0.0 7.0 0.00 0.00 0.00 80 1007.8
20260506121208 62 214 0.9 7.0 0.00 0.00 0.00 81 1007.8
20260506120657 62 140 0.0 9.6 0.00 0.00 0.00 81 1007.8
20260506115646 62 224 0.0 7.8 0.00 0.00 0.00 81 1008.0
20260506115131 62 110 0.0 7.8 0.00 0.00 0.00 81 1008.0
20260506114625 62 219 0.0 7.0 0.00 0.00 0.00 81 1008.0
20260506114119 61 138 0.9 10.4 0.00 0.00 0.00 81 1008.0
20260506113609 61 224 0.9 10.4 0.00 0.00 0.00 81 1008.2
20260506113103 61 185 0.0 6.1 0.00 0.00 0.00 82 1008.3
20260506112818 61 244 0.0 4.3 0.00 0.00 0.00 82 1008.3
20260506112306 61 236 0.0 7.8 0.00 0.00 0.00 82 1008.2
20260506111550 61 240 0.0 7.8 0.00 0.00 0.00 82 1008.0
20260506111032 61 149 0.0 8.7 0.00 0.00 0.00 82 1008.1
20260506110521 61 220 0.0 8.7 0.00 0.00 0.00 82 1008.1
20260506110015 61 234 0.0 8.7 0.00 0.00 0.00 82 1008.1
20260506105510 61 224 0.0 8.7 0.00 0.00 0.00 82 1008.1
20260506104955 60 230 0.0 5.2 0.00 0.00 0.00 82 1008.1
20260506104453 60 221 0.0 5.2 0.00 0.00 0.00 81 1008.0
20260506103943 61 211 0.0 6.1 0.00 0.00 0.00 81 1008.1
20260506103433 61 201 0.0 6.1 0.00 0.00 0.00 81 1008.2
20260506102927 61 194 0.0 2.6 0.00 0.00 0.00 81 1008.2
20260506102421 61 231 0.0 2.6 0.00 0.00 0.00 81 1008.2
20260506102142 61 203 0.0 7.8 0.00 0.00 0.00 81 1008.2
20260506101418 61 216 0.0 7.8 0.00 0.00 0.00 81 1008.1
20260506100918 61 244 0.0 3.5 0.00 0.00 0.00 81 1008.2
20260506100419 61 252 0.0 3.5 0.00 0.00 0.00 81 1008.0
20260506095915 61 219 0.0 1.7 0.00 0.00 0.00 81 1008.2
20260506095415 61 157 0.0 4.3 0.00 0.00 0.00 80 1008.0
20260506094915 61 240 0.0 4.3 0.00 0.00 0.00 80 1007.9
20260506094417 61 190 0.0 4.3 0.00 0.00 0.00 80 1007.8
20260506093916 61 172 0.0 2.6 0.00 0.00 0.00 80 1007.9
20260506093412 61 191 0.0 2.6 0.00 0.00 0.00 80 1008.0
20260506092909 61 230 0.0 2.6 0.00 0.00 0.00 79 1008.0
20260506092410 61 182 0.0 2.6 0.00 0.00 0.00 79 1008.1
20260506091910 61 234 0.0 0.9 0.00 0.00 0.00 79 1008.0
20260506091411 61 234 0.0 0.9 0.00 0.00 0.00 79 1007.9
20260506090908 61 190 0.0 0.0 0.00 0.00 0.00 79 1008.0
20260506090405 61 203 0.0 1.7 0.00 0.00 0.00 79 1007.9
20260506090130 61 226 0.0 2.6 0.00 0.00 0.00 78 1008.0
20260506085631 61 213 0.0 2.6 0.00 0.00 0.00 78 1008.1
20260506084859 61 236 0.0 7.8 0.00 0.00 0.00 78 1008.1
20260506084359 61 219 0.0 7.8 0.00 0.00 0.00 78 1007.9
20260506083859 62 207 0.0 2.6 0.00 0.00 0.00 77 1008.0
20260506083359 62 205 0.0 2.6 0.00 0.00 0.00 77 1008.0
20260506082902 62 206 0.0 4.3 0.00 0.00 0.00 77 1008.0
20260506082354 62 222 0.0 5.2 0.00 0.00 0.00 77 1008.1
20260506082125 62 227 0.0 7.0 0.00 0.00 0.00 76 1008.0
20260506081354 62 254 0.0 7.0 0.00 0.00 0.00 76 1008.0
20260506080853 62 197 0.0 7.0 0.00 0.00 0.00 76 1007.9
20260506080358 62 247 0.9 8.7 0.00 0.00 0.00 76 1008.0
20260506073349 63 186 0.0 7.0 0.00 0.00 0.00 74 1007.8
20260506072349 63 161 0.0 9.6 0.00 0.00 0.00 73 1007.8
20260506071848 63 234 0.0 7.8 0.00 0.00 0.00 73 1007.7
20260506071348 63 231 0.0 7.8 0.00 0.00 0.00 73 1007.7
20260506070847 63 216 0.0 3.5 0.00 0.00 0.00 72 1007.7